Temp
25 24 24 23 22 19 18 19 19 17 16 15 15 14 13 13 13 14 15 15 14 15 15 15 15 15 15 15 15 15 16 16 15 15 16 16 17 17 17 17 17 17 16 17 17 17 18 18 18
24 24 24 18 20 20 18 19 17 16 16 15 14 14 13 13 14 14 15 14 14 15 14 15 14 14 14 14 14 14 15 15 15 15 15 15 15 16 16 17 17 17 17 17 17 16 17 17 17
24 24 18 16 16 17 18 16 16 16 15 16 14 13 13 13 14 14 14 15 15 14 14 14 14 14 14 14 14 14 14 14 14 14 14 14 14 14 14 15 16 16 17 16 16 16 16 16 17
24 21 16 16 16 16 16 15 15 17 15 15 14 13 13 13 13 14 15 15 14 14 14 13 13 13 13 13 13 13 13 13 13 13 13 13 13 13 14 13 14 14 16 16 16 16 16 16 16
23 17 16 16 16 16 15 15 15 14 14 13 14 12 12 14 14 15 14 14 14 13 13 13 12 12 13 12 12 12 13 13 13 13 13 13 13 13 13 12 12 13 14 15 15 16 16 16 16
19 17 17 16 16 16 14 14 14 13 13 13 13 12 12 13 14 14 14 13 13 13 13 12 12 12 12 12 12 12 12 12 12 12 12 12 12 12 12 12 12 12 13 14 15 15 16 16 16
19 17 16 15 15 16 15 14 12 12 12 12 13 12 13 13 13 13 13 13 13 12 12 12 12 11 11 11 10 11 11 11 11 12 12 11 11 11 11 11 11 12 12 13 13 14 15 16 16
17 16 17 17 16 15 14 14 13 12 12 14 13 11 12 13 12 13 13 12 12 12 12 11 11 10 10 10 10 10 10 10 10 10 10 10 10 10 10 10 10 11 11 12 12 13 13 15 15
19 17 16 17 16 13 13 13 13 13 11 11 11 12 12 12 13 12 12 11 11 11 11 11 10 10 9 9 9 9 9 8 9 9 9 9 9 9 10 10 10 10 11 11 11 12 12 12 13
16 16 16 14 14 13 12 12 12 12 11 11 11 11 12 12 11 11 10 9 10 10 10 9 9 8 8 8 8 8 8 8 8 8 8 8 8 8 9 9 9 9 9 10 10 10 10 12 13
14 14 14 13 13 13 12 11 12 11 10 9 10 9 10 10 10 9 9 10 9 9 9 8 8 7 7 6 6 6 6 6 7 7 7 7 7 8 8 8 9 9 9 9 10 10 10 11 12
14 14 14 13 14 13 12 11 10 10 9 10 10 9 8 8 8 8 8 9 8 8 7 7 7 6 5 5 4 4 4 4 4 5 6 6 6 7 7 7 8 8 8 9 9 9 10 10 11
13 14 13 12 12 11 11 10 10 9 9 9 9 8 7 7 8 9 9 9 8 7 7 6 5 5 4 4 4 3 3 3 3 4 4 5 5 5 6 6 7 7 8 8 9 9 9 10 10
13 13 12 12 12 12 11 11 11 9 9 8 7 6 6 7 8 8 8 8 7 7 6 5 5 4 4 4 4 3 3 4 4 4 4 4 4 4 4 5 5 6 7 7 8 8 9 9 10
13 12 12 13 12 11 11 10 9 9 8 7 6 4 5 7 7 7 8 7 7 6 6 5 4 4 4 4 3 3 3 3 3 3 4 4 4 4 4 4 4 4 5 6 7 7 8 8 9
15 14 14 13 12 12 12 9 9 8 7 6 5 3 4 5 6 7 7 7 7 6 6 5 4 4 3 3 3 3 3 3 2 2 3 3 3 4 4 3 3 4 4 4 5 6 7 7 8
15 16 16 13 12 12 12 9 9 8 7 6 4 3 3 4 6 6 7 6 6 6 5 4 4 3 3 3 3 3 3 2 3 3 2 3 3 3 3 3 4 4 4 3 4 5 6 7 8
17 16 16 14 12 10 8 7 8 8 6 5 3 3 4 5 6 6 6 6 6 5 4 4 4 3 3 3 3 3 3 3 3 3 3 3 3 3 3 3 3 3 3 3 3 4 5 6 7
15 16 15 12 12 10 8 7 9 9 6 5 4 4 4 4 6 6 6 6 5 5 4 3 3 3 3 3 3 3 3 3 3 3 3 3 3 3 3 3 3 3 2 3 3 3 4 5 6
15 15 13 11 11 9 8 8 9 8 8 6 4 4 3 5 5 6 6 5 5 5 4 3 2 2 3 3 3 3 3 3 3 3 3 3 3 2 2 3 3 3 2 3 3 3 3 4 5
15 15 14 14 10 9 8 8 8 7 6 5 5 3 3 4 5 5 5 5 5 4 3 3 2 2 2 2 2 2 2 3 3 3 3 3 2 2 3 3 3 3 3 3 2 2 2 3 4
15 12 12 11 10 11 9 8 7 4 5 5 3 2 4 4 5 5 5 5 4 4 3 2 2 2 2 2 2 2 2 2 2 3 3 3 2 2 2 2 3 3 3 3 2 2 2 3 3
13 11 12 11 11 9 9 8 6 4 5 5 4 4 4 4 4 4 4 4 4 3 3 2 2 2 2 2 2 1 1 2 2 2 2 2 2 2 2 2 2 2 3 3 3 2 2 3 3
11 13 11 9 9 11 9 9 4 4 4 4 4 4 4 4 4 4 4 4 4 3 2 2 3 3 2 2 2 1 1 1 2 2 2 2 2 2 2 2 2 2 3 3 2 2 2 3 2
9 10 12 14 12 12 8 8 5 5 4 3 3 3 3 4 4 4 4 4 3 2 2 2 2 2 2 2 1 1 0 1 1 1 1 1 1 2 2 2 2 3 3 3 2 2 2 2 2
10 9 10 16 12 9 8 9 7 5 4 3 3 3 3 3 4 3 4 4 3 2 2 2 1 1 2 2 1 0 0 0 1 1 1 1 1 1 2 3 3 2 3 2 2 3 2 2 2
12 8 9 9 7 6 7 7 6 5 4 3 3 3 3 3 3 3 3 4 2 2 2 1 1 1 2 1 1 0 -0 0 1 1 1 1 1 1 2 3 3 3 2 2 2 2 2 2 2
10 9 10 6 6 10 7 6 6 4 3 3 2 2 3 3 3 3 3 3 2 2 2 1 1 1 1 1 1 0 -0 -0 -0 1 0 0 1 1 2 2 3 3 3 3 2 2 2 2 3
8 8 5 5 5 4 3 8 3 4 2 1 1 2 2 2 3 3 3 3 2 2 1 2 1 0 1 0 0 -0 -0 -0 -0 -0 0 -0 0 1 1 2 1 2 3 3 2 3 3 3 3
8 7 5 4 5 -0 -1 4 5 3 1 1 2 2 2 2 2 3 2 2 2 2 1 1 1 0 0 0 -0 -0 -1 -1 -1 -1 -0 0 0 1 1 1 2 2 1 3 3 3 3 3 3
Height
783 783 782 783 814 830 855 855 847 850 853 858 852 854 864 867 870 876 871 870 868 865 861 858 856 853 851 847 844 840 838 836 833 831 828 825 822 820 817 815 814 810 807 805 805 804 803 804 805
783 783 783 796 831 849 860 852 859 857 852 855 856 860 865 874 869 871 871 870 868 865 862 859 857 854 851 848 845 842 839 836 833 831 828 825 822 821 818 816 813 811 808 806 804 803 802 801 801
784 783 797 825 851 862 861 860 859 857 854 855 861 864 867 875 872 872 872 870 868 864 861 858 855 853 850 847 844 841 838 836 833 830 827 825 822 819 817 814 812 810 808 806 804 802 801 801 799
784 787 810 843 860 862 860 864 859 853 857 858 863 871 873 877 875 874 872 869 868 864 861 857 855 852 850 845 842 840 837 834 831 828 826 823 820 818 815 813 811 808 806 805 804 801 801 799 797
786 802 839 857 860 860 862 861 859 861 865 867 864 878 879 877 876 875 872 870 867 865 862 858 854 851 848 844 841 838 835 831 829 826 823 821 818 816 813 810 809 806 805 803 801 800 799 798 797
801 811 846 860 861 861 868 865 865 869 872 870 872 877 882 879 876 874 872 870 868 864 861 857 854 851 847 844 840 836 832 829 825 823 820 818 815 814 811 808 807 805 803 801 799 798 797 797 795
806 827 849 856 861 862 865 866 875 877 876 876 874 880 880 878 877 875 872 869 866 863 859 854 851 848 844 841 837 833 830 825 822 819 816 814 812 810 808 807 804 802 800 799 797 795 794 794 794
806 824 848 852 859 864 867 870 874 876 878 875 876 884 883 880 877 875 872 869 865 861 857 852 848 844 840 835 832 829 826 823 820 815 813 809 808 807 805 803 800 799 797 795 794 792 790 791 790
802 834 851 852 853 868 867 871 875 878 880 880 880 883 884 880 877 873 869 866 863 859 855 850 846 841 837 832 827 824 819 816 813 811 807 805 803 800 799 798 796 795 794 791 790 789 787 786 784
820 842 852 857 856 865 869 871 876 883 884 885 884 884 882 879 876 873 870 866 861 857 852 848 844 838 833 828 823 819 814 809 806 803 800 799 797 794 792 792 791 790 790 788 786 785 783 782 782
836 852 857 864 861 863 871 877 880 885 890 893 891 887 883 880 878 875 870 867 863 858 852 847 842 836 831 826 821 816 812 807 803 799 796 794 791 788 787 787 785 784 784 782 781 780 779 778 777
848 858 857 865 864 867 874 879 888 889 896 893 891 890 886 882 879 876 871 866 861 856 851 845 839 832 828 824 818 815 809 804 799 796 792 789 785 782 783 780 778 777 777 777 776 774 774 774 774
852 860 864 867 869 875 877 885 889 897 896 894 891 888 887 884 880 875 870 865 859 853 849 843 838 832 826 822 816 811 805 799 795 791 787 784 780 777 776 774 773 773 772 771 770 768 769 769 770
858 862 869 872 874 878 883 888 887 900 897 893 892 893 889 885 880 874 870 866 861 855 849 843 837 832 825 819 815 809 804 797 793 788 783 780 777 774 772 770 768 767 766 767 765 764 764 764 765
858 870 874 875 876 883 880 894 902 901 899 898 898 895 890 885 880 876 871 865 860 854 847 842 836 830 825 819 814 808 802 797 791 785 780 777 773 770 767 764 762 763 763 761 760 760 759 760 760
858 865 871 876 878 879 880 903 904 903 900 902 901 896 890 886 881 875 869 863 858 850 846 840 835 829 823 816 810 804 799 794 788 782 776 772 768 766 763 760 757 756 756 757 757 757 756 756 756
862 864 864 878 877 877 881 903 905 904 902 903 902 898 894 886 881 875 869 863 855 850 845 839 833 827 820 813 806 800 794 789 783 777 773 769 765 761 759 755 752 751 750 750 750 750 750 750 751
862 862 863 871 881 886 894 906 905 903 903 906 905 900 894 886 878 871 866 862 854 849 844 839 832 826 819 812 804 798 792 786 779 774 769 764 760 756 753 750 748 747 746 745 746 746 746 747 748
863 861 867 877 881 887 899 907 903 902 904 906 903 898 893 887 878 873 866 862 852 847 843 838 831 825 817 809 802 795 788 781 775 770 765 760 755 752 749 746 744 742 741 740 741 741 741 740 742
864 867 876 882 881 889 904 906 903 904 904 907 906 900 895 885 877 872 865 860 853 847 843 837 831 825 817 809 802 796 788 779 772 765 762 756 750 746 743 741 738 736 734 733 734 735 736 736 738
866 866 871 873 887 893 899 905 906 907 906 905 902 900 894 886 878 870 864 859 854 847 843 837 831 824 816 809 801 793 785 778 770 763 756 750 745 741 737 734 732 730 729 727 728 729 731 731 732
867 873 872 876 884 888 894 905 913 919 910 906 906 901 893 886 880 873 865 859 854 848 843 837 830 823 815 808 801 794 786 776 769 760 753 746 741 736 732 729 726 723 722 721 721 723 724 726 726
872 873 869 876 882 892 899 906 922 922 916 908 907 901 894 888 881 874 868 862 855 849 843 836 829 823 816 808 801 793 785 777 767 759 751 744 738 733 728 725 721 717 715 714 715 716 718 719 721
873 868 873 885 889 888 899 900 937 928 920 912 907 900 893 886 881 875 869 862 856 850 843 835 828 821 814 806 798 791 783 774 765 757 749 742 736 730 725 720 716 711 706 707 709 710 712 714 715
883 882 880 870 881 882 905 905 924 919 918 915 908 901 894 885 879 873 865 859 854 848 842 834 827 820 812 804 797 790 782 774 765 758 750 742 734 728 722 717 712 707 702 703 705 706 707 708 709
894 898 899 875 889 903 904 896 907 914 915 914 908 901 894 888 881 875 868 861 856 849 842 834 827 818 811 804 796 789 781 773 766 759 750 742 735 727 720 716 711 707 704 703 702 702 702 703 704
888 911 908 908 918 928 910 912 912 913 913 911 907 901 895 887 881 875 869 863 857 850 843 835 827 819 812 804 796 788 781 774 766 758 751 743 735 727 720 715 711 707 705 702 700 700 699 698 700
898 907 903 924 938 906 913 915 916 918 915 913 907 901 893 887 881 875 869 863 858 851 844 836 829 821 813 805 797 790 782 775 767 760 752 744 737 728 721 714 710 706 703 701 699 698 696 696 696
910 912 931 936 942 957 960 906 921 917 919 919 911 903 895 888 882 876 869 864 858 852 844 836 828 820 812 806 798 791 783 776 769 762 754 747 739 730 722 715 709 703 701 698 697 696 695 695 695
911 916 928 945 945 974 983 934 908 914 918 915 908 903 896 890 883 877 871 865 858 851 844 835 828 821 814 807 800 792 785 778 771 764 756 749 741 732 724 715 708 702 697 695 694 694 694 694 694
Wind_Speed
7 6 2 4 5 6 3 3 2 6 3 1 10 7 10 7 4 4 5 11 18 18 20 21 22 23 23 23 24 24 23 21 22 22 22 21 21 20 20 19 18 19 18 18 16 11 10 10 11
6 2 4 3 5 4 1 2 5 5 2 6 6 4 6 3 3 2 6 18 16 15 17 20 22 23 23 24 24 23 22 21 22 22 21 19 19 20 19 18 18 17 17 16 16 15 13 10 11
3 5 4 4 4 3 2 3 4 4 9 2 3 4 3 4 3 5 13 13 11 18 20 24 23 24 25 25 25 24 22 22 22 22 21 21 19 19 19 19 18 16 17 16 16 15 14 13 10
2 7 5 5 5 2 1 5 5 4 5 8 3 6 3 10 3 8 9 14 17 21 23 26 24 25 25 26 25 25 23 22 21 21 20 21 20 20 19 19 20 17 17 16 16 15 14 14 13
6 4 6 5 3 3 3 3 10 7 4 7 3 3 3 8 8 11 16 18 20 21 23 24 25 26 27 28 26 26 25 24 23 22 21 21 20 20 20 20 21 19 18 16 17 16 15 14 13
4 3 5 4 4 4 4 5 4 8 7 4 5 4 1 7 14 17 17 18 20 23 24 24 27 28 27 28 28 28 27 25 25 24 23 23 21 20 19 20 21 20 18 17 16 15 16 15 15
6 4 5 5 7 3 3 3 5 4 5 6 3 3 0 11 17 17 19 21 25 27 27 29 29 29 29 30 27 28 26 26 27 27 26 25 23 21 22 21 20 18 17 18 18 17 16 15 14
4 5 4 2 6 4 3 4 3 5 4 2 2 4 3 10 16 18 21 26 28 27 26 30 31 35 35 34 35 31 31 29 27 26 25 24 24 24 23 23 23 19 18 18 17 18 16 16 14
3 5 3 4 6 5 6 5 3 3 6 5 4 4 5 14 17 23 29 31 32 33 35 29 35 34 36 39 33 34 31 29 31 30 27 27 30 29 27 26 20 20 20 19 17 16 16 17 14
6 4 4 4 4 5 4 6 5 5 5 6 6 13 17 20 21 25 27 27 34 37 36 35 37 38 38 33 32 34 36 37 34 30 32 32 30 29 25 23 22 20 21 22 19 18 16 17 19
6 4 4 8 12 9 5 5 3 7 6 5 4 6 15 21 25 25 28 31 33 35 35 38 36 37 32 32 33 39 33 34 33 34 32 35 32 28 25 24 23 23 24 22 20 19 17 18 17
8 9 5 5 6 5 5 5 6 7 3 4 4 6 15 20 24 26 26 31 33 36 35 38 35 33 37 35 31 28 30 30 32 32 33 31 31 29 27 25 23 24 20 21 19 18 18 18 17
9 3 7 10 13 8 11 7 8 7 6 6 12 20 15 17 20 27 31 33 33 33 35 36 34 34 34 33 31 33 33 33 31 30 31 29 29 28 27 28 26 22 21 21 19 18 19 17 17
7 15 10 8 8 5 9 3 5 6 5 11 12 10 15 19 26 28 30 32 29 32 32 34 31 30 30 29 28 28 29 30 30 29 28 28 27 27 26 25 24 23 23 19 19 19 18 17 17
8 8 7 2 3 6 8 8 5 4 5 11 10 10 11 20 27 27 28 29 28 28 28 32 31 30 28 29 27 26 26 27 28 29 28 26 26 29 29 28 27 25 21 20 22 20 16 17 18
5 5 4 4 6 2 3 3 4 5 10 9 10 9 12 16 23 26 27 28 30 29 29 28 32 29 29 29 29 27 26 25 25 26 26 28 28 27 25 27 28 27 27 26 23 20 23 23 21
5 1 3 4 1 3 3 5 2 3 8 8 9 10 10 11 21 27 32 30 29 30 32 30 30 28 33 30 32 29 28 26 26 26 27 27 27 25 24 24 26 25 26 24 23 25 24 23 22
3 1 2 4 1 6 8 6 3 4 8 8 8 9 11 15 18 29 31 31 29 29 32 29 31 29 34 29 30 27 27 27 28 27 28 29 29 28 26 24 23 24 26 26 22 22 23 23 23
3 1 3 2 2 4 5 6 4 3 8 11 11 13 14 15 23 25 28 29 31 30 30 30 33 31 32 30 29 31 30 31 30 28 29 29 28 28 26 24 23 23 22 25 21 19 22 24 23
3 4 2 2 2 5 5 4 2 3 4 4 8 12 13 16 17 27 29 29 30 30 31 30 33 31 31 29 32 29 31 33 32 26 28 28 26 28 26 25 25 22 20 20 22 22 19 22 22
2 2 2 3 3 5 7 1 2 3 4 7 12 8 10 16 18 22 29 29 30 28 31 30 31 31 32 33 32 32 33 28 26 28 29 29 27 27 27 28 27 25 24 22 22 22 20 18 19
1 2 3 6 5 3 1 3 4 6 10 12 11 11 13 16 16 24 28 28 31 28 31 32 29 31 32 34 34 32 30 30 33 31 31 32 28 27 27 25 25 27 25 23 22 20 22 23 16
6 4 1 4 3 4 1 2 3 5 9 17 14 14 15 16 16 19 27 26 29 30 33 31 29 29 29 33 31 31 29 29 32 30 31 29 28 27 26 24 24 25 24 24 22 22 18 20 20
6 2 5 4 2 2 1 3 2 5 11 14 12 15 16 16 16 24 27 28 28 29 31 30 30 29 30 33 33 33 31 33 32 32 30 29 27 27 25 25 25 28 26 21 20 20 21 19 19
10 6 3 3 3 2 2 1 3 5 7 6 14 16 16 16 17 21 25 30 30 32 32 31 32 33 33 33 34 34 34 32 29 32 29 30 27 26 25 24 22 24 15 16 16 18 18 20 20
5 3 4 4 4 5 4 2 3 5 6 7 8 10 13 16 15 20 25 29 29 31 32 33 33 34 32 32 35 33 33 31 29 31 31 28 27 29 31 23 21 18 12 10 12 14 14 17 19
4 6 1 2 1 2 2 2 1 7 10 12 11 13 15 16 16 18 25 26 29 29 32 34 33 33 31 32 35 33 33 32 31 29 32 31 31 31 30 23 19 16 13 11 8 13 13 16 16
7 2 2 4 3 6 3 3 3 9 12 12 15 16 16 16 16 20 24 25 28 28 31 32 32 32 31 33 33 33 33 32 31 29 33 33 34 34 29 29 21 16 13 11 9 9 8 10 14
5 3 6 5 2 3 2 5 6 4 7 9 11 13 16 17 16 18 24 25 28 27 30 32 33 33 33 34 33 33 33 33 34 31 33 34 34 35 34 27 27 21 15 10 9 8 7 7 6
2 3 3 4 4 2 3 6 6 3 6 6 11 12 14 14 14 21 24 25 27 29 31 32 33 33 33 34 33 33 34 33 33 34 32 33 34 35 35 33 27 23 19 12 8 8 6 7 7
Wind_Direction
347 9 74 39 56 67 60 15 348 352 81 141 53 53 97 45 42 118 327 359 350 357 3 10 3 3 1 0 357 356 355 354 354 352 353 353 351 353 358 359 360 1 358 4 3 333 295 286 267
349 341 56 70 81 70 337 71 35 7 110 168 67 28 40 63 45 41 11 353 2 359 356 3 359 357 353 351 350 349 349 347 345 345 347 348 349 344 343 345 350 353 357 358 350 347 347 314 289
33 43 71 75 64 91 142 21 287 77 48 21 97 66 70 354 352 18 358 352 355 2 359 359 354 350 348 347 345 343 341 336 336 338 339 339 339 343 344 343 337 337 343 344 348 347 341 329 319
22 29 39 69 77 45 70 353 291 215 50 38 92 58 66 33 25 4 16 4 354 360 358 354 351 348 345 343 341 339 338 335 333 335 333 333 332 332 335 336 335 338 327 330 335 337 333 332 311
52 60 64 79 83 115 51 13 32 51 87 21 21 44 48 9 41 17 1 0 2 358 353 350 348 344 340 337 334 331 330 328 327 325 327 327 326 326 327 331 329 329 328 320 321 324 325 322 320
49 88 72 141 152 115 79 26 40 43 26 6 66 89 84 343 10 2 360 1 358 351 349 348 345 342 337 334 330 326 324 319 321 319 319 321 321 320 323 322 323 322 322 323 317 311 312 313 314
107 79 137 133 149 112 109 82 36 71 32 12 5 78 330 6 1 5 5 356 350 346 345 345 344 339 337 335 333 327 322 319 316 313 311 314 312 311 317 319 318 316 316 318 318 317 306 297 304
95 90 93 121 173 140 59 90 91 59 20 299 38 48 355 344 2 1 355 351 348 346 343 344 343 339 335 332 327 322 315 311 311 310 308 310 308 306 306 310 316 308 311 307 308 312 316 298 288
91 72 129 152 154 124 158 118 359 45 67 31 38 68 352 359 358 358 355 354 351 348 344 337 344 341 334 330 323 325 321 320 317 314 313 309 307 307 307 306 304 303 305 309 301 300 304 308 300
55 73 56 301 117 118 88 97 116 75 34 29 30 18 13 9 4 356 352 347 349 346 344 346 339 338 335 332 330 327 322 320 320 319 318 317 314 311 301 296 298 295 298 302 300 302 300 283 284
21 83 123 45 93 104 97 61 59 128 47 32 26 322 357 2 359 353 350 348 345 344 342 342 342 339 339 335 328 326 323 318 315 315 315 315 312 310 307 300 297 297 300 299 293 298 300 302 285
93 43 91 129 108 90 83 103 73 54 80 65 30 2 9 360 352 347 342 342 342 344 339 344 342 341 335 332 333 331 327 325 318 315 316 318 315 314 309 307 302 297 290 299 291 289 298 298 294
79 113 55 93 83 73 96 84 94 63 49 5 28 21 2 345 345 349 350 349 346 341 346 346 339 341 337 333 331 330 330 330 328 321 316 320 321 318 314 311 308 298 298 294 284 295 287 294 294
97 97 102 80 91 101 103 106 85 24 327 32 24 359 348 347 347 343 343 340 342 340 345 344 346 338 337 330 329 327 325 329 326 328 325 319 317 314 315 310 306 300 300 291 291 291 284 285 290
120 87 87 98 88 136 122 38 58 29 355 33 5 346 338 340 344 336 337 335 338 337 338 340 338 330 332 328 326 325 321 318 314 314 321 322 316 312 310 308 305 302 300 297 295 284 275 284 286
85 101 119 196 170 167 23 126 59 352 50 17 352 338 344 329 325 332 339 341 342 340 337 333 336 335 335 337 336 330 319 315 313 317 314 311 309 309 310 307 304 302 299 293 286 278 281 283 276
22 238 130 127 235 128 76 141 145 12 42 13 351 337 324 324 334 339 344 341 346 343 340 338 333 338 337 335 336 329 325 325 325 319 315 311 309 303 295 298 302 305 302 295 284 279 276 278 271
294 321 85 126 62 48 93 117 146 51 39 4 332 333 337 340 337 337 341 341 344 346 346 341 340 337 337 334 331 324 325 324 319 316 312 313 312 308 299 289 285 293 297 295 283 275 274 263 266
277 114 93 98 91 100 105 120 129 38 32 6 340 345 337 327 325 341 343 342 344 349 348 344 342 338 337 335 331 328 325 322 317 312 309 309 306 307 302 293 286 279 276 288 285 278 273 271 253
122 116 88 68 36 86 125 144 152 51 28 359 325 334 323 331 339 343 345 344 348 347 349 344 344 340 338 335 332 327 325 322 314 312 321 311 309 302 300 294 290 284 275 270 273 279 265 257 254
343 166 171 233 122 52 120 162 357 327 323 340 349 314 328 337 339 340 343 343 350 352 349 346 342 340 337 338 335 332 329 330 332 324 325 324 320 313 295 295 289 283 275 264 258 264 257 247 243
19 4 253 159 142 204 155 290 350 335 336 347 333 331 336 338 339 340 342 343 349 351 349 344 342 341 340 340 337 334 330 329 329 322 326 323 320 316 316 304 294 282 275 265 256 256 255 247 238
249 339 183 132 121 108 180 21 233 359 328 335 337 336 335 337 343 339 341 345 349 349 348 344 345 343 342 338 337 336 329 325 326 328 333 330 329 325 323 314 310 300 280 266 260 250 245 244 234
310 148 50 64 91 359 112 162 18 349 312 323 336 338 336 337 339 341 342 350 352 348 347 347 347 349 348 347 343 341 335 332 330 339 337 334 331 328 328 327 318 310 275 263 259 252 251 243 233
24 47 330 352 2 248 208 60 218 263 301 307 325 331 333 338 341 343 345 354 355 349 348 346 349 347 347 344 343 342 339 335 333 343 338 334 331 331 327 336 333 341 317 269 269 261 248 244 227
9 74 109 291 308 296 295 270 266 206 290 317 312 320 330 338 344 345 344 353 351 349 349 347 347 342 346 347 344 342 344 340 339 346 342 338 335 334 339 339 344 341 334 299 286 257 277 252 228
347 45 200 78 79 359 281 272 104 321 348 340 336 336 340 342 344 345 345 351 350 345 347 345 345 345 349 347 345 346 346 343 342 341 349 348 345 341 342 343 343 342 335 316 309 279 275 240 230
89 146 41 22 19 306 304 275 242 330 330 334 339 340 340 341 343 346 347 351 351 343 348 346 345 345 350 350 347 346 347 349 351 353 353 350 350 352 349 355 339 333 334 327 315 314 279 268 239
355 33 54 108 96 181 313 279 194 258 300 320 324 333 338 339 341 342 344 350 349 348 351 346 347 347 349 349 346 348 352 356 4 358 356 354 352 351 350 346 353 336 325 328 320 311 300 255 290
97 132 113 114 270 76 142 278 160 209 282 304 329 332 335 333 338 340 345 349 351 353 350 348 346 350 348 348 349 351 356 357 1 3 360 358 356 355 355 349 346 343 338 309 306 305 290 282 283